Volver al catálogo

COSMOS 2251 DEB

LostLEO
NORAD 35721·DEBRIS·🇷🇺 Russia

Lanzado Jun 16, 1993 desde Plesetsk Cosmodrome

Loading…

Próximos Pases (próximas 24 horas)

TLE

ObsoletoSource: Space-Track

Época: Aug 8, 2026, 09:03 UTC

1 35721U 93036AQS 26220.37708636  .00001386  00000-0  43043-3 0  9996
2 35721  73.9494  97.5448 0145279 191.7321 168.0437 14.36131404612134

Sigue COSMOS 2251 DEB en tiempo real con AllMySat

Download on the App Store